Simultaneous Nadir Overpasses (SNOs) Predictions

Prediction of SNOs between GOES-15 and METOP-C Satellite Orbit:

Table of predicted SNOs for the next 14.0 days since TLE Epoch: 5/4/2024
Index Date Time (GOES-15) GOES-15 Lat,Lon METOP-C Lat,Lon Distance(km) Time Diff (sec)
1 05/06/2024 05:24:55 -0.16, 61.51 -0.15, 61.50 2.09 80
2 05/08/2024 17:20:37 0.17, 61.52 0.26, 61.90 43.56 80
3 05/10/2024 05:42:09 -0.17, 61.57 0.76, 57.34 482.22 80
4 05/11/2024 05:18:50 -0.18, 61.59 -0.34, 62.34 84.73 80
5 05/12/2024 17:40:30 0.18, 61.60 -0.70, 57.75 438.77 80
6 05/13/2024 17:17:12 0.18, 61.62 0.46, 62.74 128.15 80
7 05/15/2024 05:38:43 -0.18, 61.68 0.60, 58.19 397.70 80
8 05/16/2024 05:15:23 -0.19, 61.70 -0.51, 63.19 169.23 80
9 05/17/2024 17:37:04 0.18, 61.70 -0.53, 58.60 354.25 80
